�������l�o���
Date,Time,MP-1(��Sv/h),MP-2(��Sv/h),MP-3(��Sv/h),MP-4(��Sv/h),MP-5(��Sv/h),MP-6(��Sv/h),MP-7(��Sv/h),MP-8(��Sv/h),����,����(m/s),���J
2022/03/22,00:00,0.573,0.853,0.547,1.042,0.735,0.345,0.601,0.569,��,1.1,�L
2022/03/22,00:10,0.574,0.850,0.546,1.043,0.735,0.345,0.599,0.568,��쐼,1.5,�L
2022/03/22,00:20,0.574,0.852,0.546,1.040,0.735,0.345,0.600,0.569,��쐼,0.9,�L
2022/03/22,00:30,0.574,0.851,0.546,1.041,0.735,0.345,0.600,0.568,�쐼,0.9,�L
2022/03/22,00:40,0.574,0.854,0.546,1.044,0.734,0.345,0.601,0.570,��,0.6,�L
2022/03/22,00:50,0.575,0.851,0.547,1.043,0.734,0.345,0.600,0.567,��,0.6,�L
2022/03/22,01:00,0.576,0.852,0.547,1.041,0.735,0.345,0.601,0.570,���k��,1.2,�L
2022/03/22,01:10,0.574,0.850,0.547,1.041,0.733,0.344,0.599,0.567,�k�k��,1.5,�L
2022/03/22,01:20,0.575,0.852,0.547,1.042,0.735,0.345,0.601,0.569,�k�k��,2.2,�L
2022/03/22,01:30,0.575,0.852,0.545,1.042,0.733,0.344,0.599,0.570,�k�k��,2.2,�L
2022/03/22,01:40,0.576,0.852,0.546,1.041,0.735,0.345,0.600,0.568,�k�k��,2.0,�L
2022/03/22,01:50,0.575,0.851,0.547,1.041,0.735,0.345,0.599,0.568,�k�k��,2.6,�L
2022/03/22,02:00,0.575,0.852,0.545,1.042,0.734,0.346,0.600,0.569,�k��,3.0,�L
2022/03/22,02:10,0.573,0.851,0.547,1.042,0.734,0.345,0.601,0.568,�k�k��,3.2,�L
2022/03/22,02:20,0.575,0.851,0.547,1.041,0.733,0.345,0.600,0.569,�k�k��,4.2,�L
2022/03/22,02:30,0.575,0.852,0.545,1.043,0.735,0.347,0.600,0.567,�k�k��,3.9,�L
2022/03/22,02:40,0.575,0.852,0.547,1.043,0.733,0.346,0.600,0.568,�k�k��,4.2,�L
2022/03/22,02:50,0.574,0.851,0.546,1.041,0.735,0.346,0.600,0.568,�k�k��,3.7,�L
2022/03/22,03:00,0.575,0.851,0.548,1.044,0.734,0.347,0.598,0.569,�k�k��,3.0,�L
2022/03/22,03:10,0.574,0.849,0.546,1.042,0.734,0.346,0.599,0.568,�k,2.2,�L
2022/03/22,03:20,0.574,0.850,0.548,1.042,0.733,0.347,0.598,0.568,�k,2.5,�L
2022/03/22,03:30,0.575,0.850,0.546,1.040,0.733,0.345,0.599,0.568,�k,2.6,�L
2022/03/22,03:40,0.575,0.848,0.545,1.042,0.731,0.347,0.601,0.568,�k�k��,2.6,�L
2022/03/22,03:50,0.574,0.848,0.546,1.039,0.733,0.345,0.599,0.567,�k,2.5,�L
2022/03/22,04:00,0.572,0.848,0.545,1.039,0.732,0.347,0.597,0.567,�k,2.6,�L
2022/03/22,04:10,0.572,0.846,0.545,1.039,0.731,0.346,0.600,0.566,�k�k��,2.6,�L
2022/03/22,04:20,0.573,0.847,0.545,1.039,0.732,0.346,0.598,0.567,�k�k��,2.9,�L
2022/03/22,04:30,0.574,0.847,0.546,1.039,0.730,0.346,0.600,0.568,�k�k��,2.6,�L
2022/03/22,04:40,0.573,0.845,0.546,1.038,0.730,0.347,0.598,0.567,�k�k��,2.3,�L
2022/03/22,04:50,0.572,0.844,0.546,1.039,0.730,0.346,0.597,0.567,�k�k��,3.1,�L
2022/03/22,05:00,0.573,0.843,0.544,1.037,0.729,0.347,0.598,0.569,�k�k��,2.0,�L
2022/03/22,05:10,0.571,0.842,0.542,1.037,0.729,0.348,0.599,0.566,�k�k��,3.3,�L
2022/03/22,05:20,0.571,0.841,0.542,1.035,0.731,0.347,0.597,0.567,�k�k��,2.8,�L
2022/03/22,05:30,0.569,0.841,0.544,1.035,0.728,0.346,0.596,0.567,�k��,2.9,�L
2022/03/22,05:40,0.572,0.840,0.543,1.033,0.727,0.347,0.597,0.568,�k��,3.3,�L
2022/03/22,05:50,0.569,0.840,0.542,1.031,0.728,0.348,0.596,0.567,�k��,4.1,�L
2022/03/22,06:00,0.569,0.838,0.541,1.034,0.726,0.347,0.594,0.565,�k��,4.3,�L
2022/03/22,06:10,0.567,0.838,0.541,1.033,0.725,0.347,0.597,0.565,���k��,4.2,�L
2022/03/22,06:20,0.569,0.839,0.542,1.032,0.725,0.346,0.598,0.566,���k��,4.3,�L
2022/03/22,06:30,0.569,0.838,0.543,1.032,0.724,0.346,0.595,0.566,��,5.4,�L
2022/03/22,06:40,0.566,0.834,0.541,1.029,0.724,0.347,0.594,0.565,���k��,6.1,�L
2022/03/22,06:50,0.567,0.832,0.541,1.029,0.721,0.346,0.592,0.566,���k��,5.4,�L
2022/03/22,07:00,0.566,0.830,0.540,1.027,0.721,0.345,0.594,0.564,���k��,5.5,�L
2022/03/22,07:10,0.565,0.827,0.540,1.023,0.717,0.345,0.592,0.564,�k��,4.9,�L
2022/03/22,07:20,0.561,0.825,0.537,1.020,0.713,0.344,0.591,0.563,�k��,4.4,�L
2022/03/22,07:30,0.562,0.821,0.533,1.021,0.711,0.344,0.591,0.561,�k��,5.1,�L
2022/03/22,07:40,0.560,0.818,0.532,1.018,0.709,0.343,0.591,0.562,���k��,6.9,�L
2022/03/22,07:50,0.558,0.816,0.531,1.015,0.704,0.340,0.589,0.561,�k��,7.8,�L
2022/03/22,08:00,0.557,0.813,0.529,1.013,0.701,0.341,0.588,0.561,�k��,8.1,�L
2022/03/22,08:10,0.557,0.809,0.526,1.007,0.699,0.341,0.588,0.561,�k��,7.1,�L
2022/03/22,08:20,0.556,0.808,0.525,1.009,0.694,0.340,0.588,0.561,�k��,6.7,�L
2022/03/22,08:30,0.553,0.803,0.523,1.007,0.691,0.340,0.587,0.562,�k��,7.3,�L
2022/03/22,08:40,0.554,0.803,0.523,1.005,0.689,0.339,0.585,0.560,�k��,7.5,�L
2022/03/22,08:50,0.552,0.798,0.522,1.003,0.685,0.339,0.586,0.559,�k��,7.1,�L
2022/03/22,09:00,0.553,0.795,0.517,0.999,0.682,0.339,0.584,0.560,�k��,7.4,�L
2022/03/22,09:10,0.552,0.794,0.517,1.000,0.680,0.338,0.584,0.559,�k��,6.6,�L
2022/03/22,09:20,0.549,0.790,0.515,0.997,0.677,0.338,0.582,0.557,�k��,7.2,�L
2022/03/22,09:30,0.549,0.788,0.513,0.996,0.675,0.336,0.582,0.556,�k�k��,6.1,�L
2022/03/22,09:40,0.549,0.787,0.513,0.994,0.671,0.336,0.583,0.556,�k�k��,5.1,�L
2022/03/22,09:50,0.547,0.785,0.512,0.994,0.670,0.338,0.580,0.556,�k�k��,4.7,�L
2022/03/22,10:00,0.547,0.783,0.511,0.988,0.670,0.336,0.579,0.555,�k��,4.6,�L
2022/03/22,10:10,0.547,0.783,0.509,0.989,0.667,0.336,0.579,0.556,�k��,4.0,�L
2022/03/22,10:20,0.544,0.778,0.508,0.986,0.663,0.337,0.578,0.556,�k�k��,4.5,�L
2022/03/22,10:30,0.542,0.776,0.508,0.988,0.659,0.338,0.577,0.556,�k��,5.2,�L
2022/03/22,10:40,0.541,0.772,0.505,0.984,0.659,0.337,0.576,0.554,�k��,5.4,�L
2022/03/22,10:50,0.538,0.770,0.503,0.981,0.655,0.336,0.574,0.552,�k��,6.3,�L
2022/03/22,11:00,0.536,0.765,0.502,0.979,0.654,0.336,0.572,0.552,�k��,6.3,�L
2022/03/22,11:10,0.535,0.764,0.500,0.977,0.649,0.334,0.573,0.552,�k�k��,5.6,�L
2022/03/22,11:20,0.535,0.761,0.498,0.976,0.649,0.334,0.571,0.552,�k�k��,7.3,�L
2022/03/22,11:30,0.533,0.759,0.497,0.972,0.644,0.333,0.571,0.553,�k�k��,7.0,�L
2022/03/22,11:40,0.533,0.756,0.493,0.969,0.644,0.332,0.568,0.552,�k�k��,5.6,�L
2022/03/22,11:50,0.530,0.754,0.493,0.967,0.640,0.332,0.570,0.551,�k�k��,6.8,�L
2022/03/22,12:00,0.530,0.750,0.493,0.965,0.637,0.330,0.567,0.549,�k�k��,7.1,�L
2022/03/22,12:10,0.527,0.747,0.490,0.961,0.633,0.331,0.568,0.550,�k�k��,7.6,�L
2022/03/22,12:20,0.524,0.746,0.488,0.956,0.630,0.330,0.566,0.548,�k�k��,7.2,�L
2022/03/22,12:30,0.523,0.742,0.486,0.954,0.624,0.328,0.565,0.548,�k�k��,8.3,�L
2022/03/22,12:40,0.520,0.739,0.485,0.949,0.621,0.329,0.563,0.549,�k,6.7,�L
2022/03/22,12:50,0.520,0.734,0.484,0.949,0.618,0.327,0.562,0.547,�k�k��,6.5,�L
2022/03/22,13:00,0.518,0.730,0.480,0.944,0.613,0.324,0.561,0.547,�k,5.6,�L
2022/03/22,13:10,0.515,0.727,0.478,0.940,0.610,0.324,0.558,0.544,�k,4.8,�L
2022/03/22,13:20,0.515,0.725,0.478,0.938,0.608,0.325,0.558,0.544,�k,4.0,�L
2022/03/22,13:30,0.513,0.721,0.474,0.934,0.604,0.323,0.556,0.544,�k�k��,5.0,�L
2022/03/22,13:40,0.511,0.720,0.472,0.931,0.602,0.323,0.555,0.542,�k,6.9,�L
2022/03/22,13:50,0.510,0.716,0.473,0.928,0.601,0.323,0.554,0.541,�k,6.9,�L
2022/03/22,14:00,0.508,0.713,0.470,0.926,0.598,0.321,0.553,0.542,�k,5.7,�L
2022/03/22,14:10,0.506,0.709,0.469,0.923,0.594,0.319,0.552,0.539,�k,3.8,�L
2022/03/22,14:20,0.503,0.707,0.468,0.920,0.591,0.319,0.550,0.540,�k�k��,3.8,�L
2022/03/22,14:30,0.502,0.704,0.467,0.915,0.589,0.319,0.550,0.539,�k�k��,5.5,�L
2022/03/22,14:40,0.502,0.701,0.466,0.916,0.583,0.318,0.549,0.537,�k�k��,5.4,�L
2022/03/22,14:50,0.499,0.697,0.464,0.912,0.582,0.318,0.546,0.537,�k�k��,5.6,�L
2022/03/22,15:00,0.497,0.694,0.461,0.909,0.578,0.318,0.547,0.537,�k,6.1,�L
2022/03/22,15:10,0.496,0.692,0.458,0.905,0.577,0.315,0.546,0.536,�k,5.0,�L
2022/03/22,15:20,0.495,0.690,0.457,0.902,0.576,0.315,0.544,0.535,�k,5.9,�L
2022/03/22,15:30,0.492,0.686,0.455,0.900,0.572,0.314,0.544,0.535,�k,4.5,�L
2022/03/22,15:40,0.493,0.684,0.453,0.896,0.571,0.312,0.546,0.536,�k�k��,4.3,�L
2022/03/22,15:50,0.490,0.684,0.452,0.892,0.570,0.312,0.545,0.535,�k,4.2,�L
2022/03/22,16:00,0.490,0.681,0.451,0.890,0.567,0.309,0.545,0.535,�k�k��,2.9,�L
2022/03/22,16:10,0.491,0.680,0.450,0.886,0.565,0.309,0.545,0.535,�k,3.4,�L
2022/03/22,16:20,0.488,0.678,0.449,0.884,0.565,0.308,0.545,0.535,�k�k��,3.9,�L
2022/03/22,16:30,0.489,0.679,0.449,0.882,0.565,0.307,0.546,0.536,�k�k��,5.0,�L
2022/03/22,16:40,0.489,0.680,0.449,0.881,0.564,0.307,0.546,0.537,�k��,5.2,�L
2022/03/22,16:50,0.488,0.678,0.447,0.879,0.564,0.308,0.546,0.537,�k�k��,4.8,�L
2022/03/22,17:00,0.490,0.680,0.449,0.878,0.565,0.308,0.546,0.536,�k�k��,4.1,�L
2022/03/22,17:10,0.490,0.680,0.447,0.878,0.564,0.307,0.548,0.536,�k�k��,5.0,�L
2022/03/22,17:20,0.488,0.680,0.448,0.878,0.563,0.306,0.547,0.538,�k��,5.9,�L
2022/03/22,17:30,0.489,0.680,0.447,0.879,0.564,0.307,0.550,0.538,�k�k��,5.4,�L
2022/03/22,17:40,0.491,0.681,0.448,0.878,0.565,0.306,0.548,0.539,�k��,4.9,�L
2022/03/22,17:50,0.489,0.678,0.449,0.879,0.566,0.306,0.550,0.537,�k�k��,5.2,�L
2022/03/22,18:00,0.491,0.679,0.447,0.878,0.564,0.306,0.551,0.538,�k�k��,5.5,�L
2022/03/22,18:10,0.492,0.680,0.448,0.877,0.566,0.306,0.548,0.539,�k�k��,6.0,�L
2022/03/22,18:20,0.492,0.682,0.450,0.880,0.567,0.305,0.548,0.539,�k�k��,5.7,��
2022/03/22,18:30,0.492,0.681,0.449,0.878,0.567,0.305,0.551,0.539,�k�k��,6.3,��
2022/03/22,18:40,0.492,0.682,0.449,0.880,0.566,0.306,0.550,0.539,�k�k��,6.2,��
2022/03/22,18:50,0.491,0.683,0.450,0.878,0.568,0.307,0.550,0.539,�k�k��,5.8,��
2022/03/22,19:00,0.493,0.685,0.449,0.878,0.568,0.307,0.550,0.540,�k�k��,7.0,��
2022/03/22,19:10,0.493,0.685,0.450,0.880,0.570,0.308,0.552,0.541,�k�k��,6.8,��
2022/03/22,19:20,0.494,0.684,0.450,0.882,0.570,0.307,0.550,0.542,�k�k��,7.6,��
2022/03/22,19:30,0.494,0.685,0.452,0.881,0.569,0.306,0.551,0.540,�k�k��,6.4,��
2022/03/22,19:40,0.495,0.687,0.452,0.885,0.570,0.308,0.552,0.540,�k�k��,5.8,��
2022/03/22,19:50,0.495,0.685,0.451,0.884,0.570,0.308,0.552,0.543,�k�k��,5.9,��
2022/03/22,20:00,0.494,0.688,0.451,0.887,0.572,0.308,0.552,0.542,�k,6.2,��
2022/03/22,20:10,0.496,0.686,0.452,0.885,0.571,0.308,0.552,0.540,�k�k��,6.7,��
2022/03/22,20:20,0.494,0.689,0.451,0.887,0.573,0.308,0.552,0.542,�k�k��,6.1,��
2022/03/22,20:30,0.496,0.688,0.451,0.887,0.574,0.308,0.552,0.541,�k�k��,6.4,��
2022/03/22,20:40,0.497,0.688,0.452,0.889,0.574,0.309,0.552,0.542,�k�k��,6.0,��
2022/03/22,20:50,0.497,0.689,0.452,0.889,0.575,0.308,0.552,0.542,�k�k��,5.5,��
2022/03/22,21:00,0.498,0.689,0.452,0.888,0.575,0.308,0.553,0.541,�k�k��,5.5,��
2022/03/22,21:10,0.497,0.689,0.453,0.891,0.577,0.308,0.553,0.541,�k�k��,4.9,��
2022/03/22,21:20,0.498,0.688,0.452,0.889,0.575,0.310,0.555,0.542,�k�k��,4.7,��
2022/03/22,21:30,0.498,0.689,0.453,0.893,0.577,0.308,0.554,0.543,�k�k��,5.1,��
2022/03/22,21:40,0.499,0.689,0.454,0.894,0.575,0.309,0.554,0.542,�k�k��,4.9,��
2022/03/22,21:50,0.499,0.690,0.454,0.893,0.578,0.310,0.555,0.542,�k,3.7,��
2022/03/22,22:00,0.498,0.692,0.454,0.894,0.579,0.309,0.555,0.544,�k�k��,4.0,��
2022/03/22,22:10,0.499,0.692,0.454,0.892,0.578,0.310,0.555,0.543,�k�k��,3.7,��
2022/03/22,22:20,0.499,0.692,0.455,0.895,0.581,0.312,0.554,0.542,�k�k��,3.3,��
2022/03/22,22:30,0.500,0.692,0.454,0.896,0.580,0.310,0.554,0.543,�k�k��,3.7,��
2022/03/22,22:40,0.498,0.691,0.454,0.894,0.580,0.311,0.555,0.542,�k�k��,4.0,��
2022/03/22,22:50,0.499,0.692,0.453,0.897,0.579,0.310,0.555,0.543,�k�k��,3.5,��
2022/03/22,23:00,0.499,0.693,0.454,0.897,0.582,0.310,0.555,0.543,�k�k��,3.5,��
2022/03/22,23:10,0.500,0.694,0.453,0.896,0.580,0.313,0.555,0.542,�k��,2.8,��
2022/03/22,23:20,0.500,0.692,0.453,0.897,0.582,0.311,0.555,0.542,�k��,2.3,��
2022/03/22,23:30,0.500,0.693,0.456,0.897,0.582,0.312,0.555,0.543,�k��,3.0,��
2022/03/22,23:40,0.501,0.696,0.456,0.897,0.582,0.311,0.554,0.545,�k�k��,2.6,��
2022/03/22,23:50,0.499,0.695,0.456,0.898,0.583,0.314,0.555,0.543,�k�k��,3.3,��
